Time,TemperatureF,DewpointF,PressureIn,WindDirection,WindDirectionDegrees,WindSpeedMPH,WindSpeedGustMPH,Humidity,HourlyPrecipIn,Conditions,Clouds,dailyrainin,SoftwareType,DateUTC
2013-11-16 00:00:00,46.0,40.8,30.20,NE,43,0.0,0.0,82,0.00,,,0.04,Wunderground v.1.15,2013-11-16 05:00:00,
2013-11-16 00:05:00,46.0,41.7,30.20,NE,43,0.0,0.0,85,0.00,,,0.00,Wunderground v.1.15,2013-11-16 05:05:00,
2013-11-16 00:10:00,46.0,41.7,30.20,NE,43,0.0,0.0,85,0.00,,,0.01,Wunderground v.1.15,2013-11-16 05:10:00,
2013-11-16 00:15:00,45.9,41.3,30.20,NE,43,0.0,0.0,84,0.00,,,0.01,Wunderground v.1.15,2013-11-16 05:15:00,
2013-11-16 00:20:00,45.8,41.2,30.20,NE,43,0.0,0.0,84,0.00,,,0.01,Wunderground v.1.15,2013-11-16 05:20:00,
2013-11-16 00:30:00,45.9,41.9,30.20,NE,43,0.0,0.0,86,0.00,,,0.01,Wunderground v.1.15,2013-11-16 05:30:00,
2013-11-16 00:35:00,46.0,42.0,30.20,NE,42,0.0,0.0,86,0.00,,,0.01,Wunderground v.1.15,2013-11-16 05:35:00,
2013-11-16 00:40:00,46.0,42.0,30.20,NE,43,0.0,0.0,86,0.00,,,0.01,Wunderground v.1.15,2013-11-16 05:40:00,
2013-11-16 00:45:00,46.0,42.0,30.20,NE,43,0.0,0.0,86,0.00,,,0.01,Wunderground v.1.15,2013-11-16 05:45:00,
2013-11-16 00:50:00,46.0,42.0,30.20,NE,43,0.0,0.0,86,0.00,,,0.01,Wunderground v.1.15,2013-11-16 05:50:00,
2013-11-16 01:00:00,45.9,42.5,30.20,NE,43,0.0,0.0,88,0.00,,,0.01,Wunderground v.1.15,2013-11-16 06:00:00,
2013-11-16 01:05:00,45.9,42.5,30.20,NE,43,0.0,0.0,88,0.00,,,0.01,Wunderground v.1.15,2013-11-16 06:05:00,
2013-11-16 01:15:00,45.5,42.2,30.19,NE,43,0.0,0.0,88,0.00,,,0.02,Wunderground v.1.15,2013-11-16 06:15:00,
2013-11-16 01:20:00,45.2,42.2,30.19,NE,43,0.0,0.0,89,0.00,,,0.02,Wunderground v.1.15,2013-11-16 06:20:00,
2013-11-16 01:25:00,45.0,42.0,30.19,NE,43,0.0,0.0,89,0.00,,,0.02,Wunderground v.1.15,2013-11-16 06:25:00,
2013-11-16 01:35:00,44.7,41.9,30.20,NE,43,0.0,0.0,90,0.00,,,0.02,Wunderground v.1.15,2013-11-16 06:35:00,
2013-11-16 01:40:00,44.8,42.3,30.20,NE,43,0.0,0.0,91,0.00,,,0.02,Wunderground v.1.15,2013-11-16 06:40:00,
2013-11-16 01:45:00,44.8,42.3,30.20,NE,43,0.0,0.0,91,0.00,,,0.02,Wunderground v.1.15,2013-11-16 06:45:00,
2013-11-16 01:50:00,44.8,42.3,30.20,NE,43,0.0,0.0,91,0.00,,,0.02,Wunderground v.1.15,2013-11-16 06:50:00,
2013-11-16 01:55:00,44.8,42.6,30.19,NE,43,0.0,0.0,92,0.00,,,0.02,Wunderground v.1.15,2013-11-16 06:55:00,
2013-11-16 02:00:00,44.8,42.3,30.19,NE,43,0.0,0.0,91,0.00,,,0.02,Wunderground v.1.15,2013-11-16 07:00:00,
2013-11-16 02:05:00,44.8,42.6,30.19,NE,43,0.0,0.0,92,0.00,,,0.02,Wunderground v.1.15,2013-11-16 07:05:00,
2013-11-16 02:15:00,44.8,42.3,30.19,NE,43,0.0,0.0,91,0.00,,,0.02,Wunderground v.1.15,2013-11-16 07:15:00,
2013-11-16 02:20:00,44.8,42.3,30.19,NE,42,0.0,0.0,91,0.00,,,0.02,Wunderground v.1.15,2013-11-16 07:20:00,
2013-11-16 02:25:00,44.8,42.3,30.19,NE,43,0.0,0.0,91,0.00,,,0.02,Wunderground v.1.15,2013-11-16 07:25:00,
2013-11-16 02:30:00,44.8,42.6,30.19,NE,43,0.0,0.0,92,0.00,,,0.02,Wunderground v.1.15,2013-11-16 07:30:00,
2013-11-16 02:40:00,44.8,42.6,30.18,NE,43,0.0,0.0,92,0.00,,,0.02,Wunderground v.1.15,2013-11-16 07:40:00,
2013-11-16 02:45:00,44.8,42.6,30.18,NE,43,0.0,0.0,92,0.00,,,0.02,Wunderground v.1.15,2013-11-16 07:45:00,
2013-11-16 02:50:00,44.7,42.5,30.19,NE,43,0.0,0.0,92,0.00,,,0.02,Wunderground v.1.15,2013-11-16 07:50:00,
2013-11-16 02:55:00,44.6,42.4,30.18,NE,43,0.0,0.0,92,0.00,,,0.02,Wunderground v.1.15,2013-11-16 07:55:00,
2013-11-16 03:05:00,44.5,42.3,30.18,NE,43,0.0,0.0,92,0.00,,,0.02,Wunderground v.1.15,2013-11-16 08:05:00,
2013-11-16 03:15:00,44.4,42.2,30.18,NE,43,0.0,0.0,92,0.00,,,0.02,Wunderground v.1.15,2013-11-16 08:15:00,
2013-11-16 03:20:00,44.3,42.1,30.18,NE,43,0.0,0.0,92,0.00,,,0.02,Wunderground v.1.15,2013-11-16 08:20:00,
2013-11-16 03:25:00,44.3,42.1,30.18,NE,43,0.0,0.0,92,0.00,,,0.02,Wunderground v.1.15,2013-11-16 08:25:00,
2013-11-16 03:30:00,44.2,42.0,30.18,NE,43,0.0,0.0,92,0.00,,,0.02,Wunderground v.1.15,2013-11-16 08:30:00,
2013-11-16 03:35:00,44.1,41.9,30.18,NE,43,0.0,0.0,92,0.00,,,0.02,Wunderground v.1.15,2013-11-16 08:35:00,
2013-11-16 03:40:00,43.9,41.4,30.18,NE,43,0.0,0.0,91,0.00,,,0.02,Wunderground v.1.15,2013-11-16 08:40:00,
2013-11-16 03:50:00,43.5,41.0,30.18,NE,43,0.0,0.0,91,0.00,,,0.02,Wunderground v.1.15,2013-11-16 08:50:00,
2013-11-16 03:55:00,43.4,40.9,30.18,NE,43,0.0,0.0,91,0.00,,,0.02,Wunderground v.1.15,2013-11-16 08:55:00,
2013-11-16 04:00:00,43.3,41.1,30.19,NE,42,0.0,0.0,92,0.00,,,0.02,Wunderground v.1.15,2013-11-16 09:00:00,
2013-11-16 04:10:00,43.3,41.1,30.18,NE,42,0.0,0.0,92,0.00,,,0.02,Wunderground v.1.15,2013-11-16 09:10:00,
2013-11-16 04:15:00,43.3,40.8,30.18,NE,43,0.0,0.0,91,0.00,,,0.02,Wunderground v.1.15,2013-11-16 09:15:00,
2013-11-16 04:25:00,43.3,40.8,30.19,NE,43,0.0,0.0,91,0.00,,,0.02,Wunderground v.1.15,2013-11-16 09:25:00,
2013-11-16 04:30:00,43.2,40.8,30.19,NE,43,0.0,0.0,91,0.00,,,0.02,Wunderground v.1.15,2013-11-16 09:30:00,
2013-11-16 04:35:00,43.2,40.8,30.19,NE,43,0.0,0.0,91,0.00,,,0.02,Wunderground v.1.15,2013-11-16 09:35:00,
2013-11-16 04:40:00,43.1,40.7,30.19,NE,43,0.0,0.0,91,0.00,,,0.02,Wunderground v.1.15,2013-11-16 09:40:00,
2013-11-16 04:45:00,43.0,40.6,30.19,NE,43,0.0,0.0,91,0.00,,,0.02,Wunderground v.1.15,2013-11-16 09:45:00,
2013-11-16 04:55:00,42.8,40.4,30.19,NE,43,0.0,0.0,91,0.00,,,0.02,Wunderground v.1.15,2013-11-16 09:55:00,
2013-11-16 05:00:00,42.8,40.4,30.19,NE,43,0.0,0.0,91,0.00,,,0.02,Wunderground v.1.15,2013-11-16 10:00:00,
2013-11-16 05:05:00,42.8,40.6,30.19,NE,43,0.0,1.0,92,0.00,,,0.02,Wunderground v.1.15,2013-11-16 10:05:00,
2013-11-16 05:15:00,42.7,40.5,30.19,NE,42,0.0,0.0,92,0.00,,,0.02,Wunderground v.1.15,2013-11-16 10:15:00,
2013-11-16 05:20:00,42.6,40.4,30.19,NE,43,0.0,0.0,92,0.00,,,0.02,Wunderground v.1.15,2013-11-16 10:20:00,
2013-11-16 05:30:00,42.5,40.3,30.20,NE,43,0.0,0.0,92,0.00,,,0.02,Wunderground v.1.15,2013-11-16 10:30:00,
2013-11-16 05:35:00,42.6,40.7,30.20,NE,43,0.0,0.0,93,0.00,,,0.02,Wunderground v.1.15,2013-11-16 10:35:00,
2013-11-16 05:40:00,42.7,40.8,30.19,NE,43,0.0,0.0,93,0.00,,,0.02,Wunderground v.1.15,2013-11-16 10:40:00,
2013-11-16 05:45:00,42.8,40.9,30.20,NE,43,0.0,0.0,93,0.00,,,0.02,Wunderground v.1.15,2013-11-16 10:45:00,
2013-11-16 05:50:00,42.9,41.0,30.20,NE,43,0.0,0.0,93,0.00,,,0.02,Wunderground v.1.15,2013-11-16 10:50:00,
2013-11-16 05:55:00,43.0,41.4,30.19,NE,43,0.0,0.0,94,0.00,,,0.02,Wunderground v.1.15,2013-11-16 10:55:00,
2013-11-16 06:05:00,43.1,41.5,30.20,NE,43,0.0,0.0,94,0.00,,,0.02,Wunderground v.1.15,2013-11-16 11:05:00,
2013-11-16 06:15:00,43.2,41.6,30.20,NE,43,0.0,0.0,94,0.00,,,0.02,Wunderground v.1.15,2013-11-16 11:15:00,
2013-11-16 06:20:00,43.2,41.6,30.21,NE,43,0.0,0.0,94,0.00,,,0.02,Wunderground v.1.15,2013-11-16 11:20:00,
2013-11-16 06:25:00,43.1,41.2,30.20,NE,43,0.0,0.0,93,0.00,,,0.02,Wunderground v.1.15,2013-11-16 11:25:00,
2013-11-16 06:30:00,43.1,41.2,30.20,NE,43,0.0,0.0,93,0.00,,,0.02,Wunderground v.1.15,2013-11-16 11:30:00,
2013-11-16 06:40:00,43.1,41.5,30.20,NE,43,0.0,0.0,94,0.00,,,0.02,Wunderground v.1.15,2013-11-16 11:40:00,
2013-11-16 06:45:00,43.1,41.2,30.20,NE,42,0.0,0.0,93,0.00,,,0.02,Wunderground v.1.15,2013-11-16 11:45:00,
2013-11-16 06:50:00,42.9,41.0,30.20,NE,43,0.0,0.0,93,0.00,,,0.02,Wunderground v.1.15,2013-11-16 11:50:00,
2013-11-16 06:55:00,42.7,40.8,30.20,NE,43,0.0,0.0,93,0.00,,,0.02,Wunderground v.1.15,2013-11-16 11:55:00,
2013-11-16 07:00:00,42.5,40.6,30.21,NE,43,0.0,0.0,93,0.00,,,0.02,Wunderground v.1.15,2013-11-16 12:00:00,
2013-11-16 07:05:00,42.4,40.5,30.21,NE,43,0.0,0.0,93,0.00,,,0.02,Wunderground v.1.15,2013-11-16 12:05:00,
2013-11-16 07:15:00,42.1,40.2,30.21,NE,43,0.0,0.0,93,0.00,,,0.02,Wunderground v.1.15,2013-11-16 12:15:00,
2013-11-16 07:25:00,42.0,40.1,30.22,NE,43,0.0,0.0,93,0.00,,,0.02,Wunderground v.1.15,2013-11-16 12:25:00,
2013-11-16 07:30:00,41.9,40.0,30.22,NE,43,0.0,0.0,93,0.00,,,0.02,Wunderground v.1.15,2013-11-16 12:30:00,
2013-11-16 07:35:00,41.9,40.0,30.22,NE,43,0.0,0.0,93,0.00,,,0.02,Wunderground v.1.15,2013-11-16 12:35:00,
2013-11-16 07:45:00,42.1,40.5,30.22,NE,43,0.0,0.0,94,0.00,,,0.02,Wunderground v.1.15,2013-11-16 12:45:00,
2013-11-16 07:50:00,42.2,40.6,30.22,NE,43,0.0,0.0,94,0.00,,,0.02,Wunderground v.1.15,2013-11-16 12:50:00,
2013-11-16 07:55:00,42.3,40.7,30.23,NE,43,0.0,0.0,94,0.00,,,0.02,Wunderground v.1.15,2013-11-16 12:55:00,
2013-11-16 08:00:00,42.5,40.9,30.23,NE,43,0.0,0.0,94,0.00,,,0.02,Wunderground v.1.15,2013-11-16 13:00:00,
2013-11-16 08:05:00,42.6,41.0,30.23,NE,43,0.0,0.0,94,0.00,,,0.02,Wunderground v.1.15,2013-11-16 13:05:00,
2013-11-16 08:15:00,42.8,41.2,30.23,NE,43,0.0,0.0,94,0.00,,,0.02,Wunderground v.1.15,2013-11-16 13:15:00,
2013-11-16 08:20:00,43.0,41.4,30.23,NE,43,0.0,0.0,94,0.00,,,0.02,Wunderground v.1.15,2013-11-16 13:20:00,
2013-11-16 08:25:00,43.4,42.1,30.23,NE,43,0.0,0.0,95,0.00,,,0.02,Wunderground v.1.15,2013-11-16 13:25:00,
2013-11-16 08:35:00,44.1,42.5,30.24,NE,43,0.0,1.0,94,0.00,,,0.02,Wunderground v.1.15,2013-11-16 13:35:00,
2013-11-16 08:40:00,44.4,42.8,30.24,NE,43,0.0,0.0,94,0.00,,,0.02,Wunderground v.1.15,2013-11-16 13:40:00,
2013-11-16 08:45:00,44.7,43.1,30.24,NE,42,0.0,0.0,94,0.00,,,0.02,Wunderground v.1.15,2013-11-16 13:45:00,
2013-11-16 08:55:00,46.0,44.1,30.24,NE,43,0.0,0.0,93,0.00,,,0.02,Wunderground v.1.15,2013-11-16 13:55:00,
2013-11-16 09:00:00,46.9,45.3,30.24,NE,43,0.0,1.0,94,0.00,,,0.02,Wunderground v.1.15,2013-11-16 14:00:00,
2013-11-16 09:05:00,47.6,45.7,30.24,ESE,110,1.0,2.0,93,0.00,,,0.02,Wunderground v.1.15,2013-11-16 14:05:00,
2013-11-16 09:15:00,48.2,45.7,30.24,ESE,104,1.0,1.0,91,0.00,,,0.02,Wunderground v.1.15,2013-11-16 14:15:00,
2013-11-16 09:20:00,48.6,45.8,30.24,ESE,104,1.0,1.0,90,0.00,,,0.02,Wunderground v.1.15,2013-11-16 14:20:00,
2013-11-16 09:30:00,48.8,45.4,30.24,ESE,104,0.0,0.0,88,0.00,,,0.02,Wunderground v.1.15,2013-11-16 14:30:00,
2013-11-16 09:35:00,48.9,45.8,30.24,NE,55,0.0,0.0,89,0.00,,,0.02,Wunderground v.1.15,2013-11-16 14:35:00,
2013-11-16 09:40:00,49.5,45.8,30.24,East,96,0.0,0.0,87,0.00,,,0.02,Wunderground v.1.15,2013-11-16 14:40:00,
2013-11-16 09:45:00,49.8,45.5,30.24,East,96,0.0,0.0,85,0.00,,,0.02,Wunderground v.1.15,2013-11-16 14:45:00,
2013-11-16 09:50:00,50.2,45.6,30.24,East,96,0.0,0.0,84,0.00,,,0.02,Wunderground v.1.15,2013-11-16 14:50:00,
2013-11-16 10:00:00,51.3,46.0,30.24,East,99,1.0,1.0,82,0.00,,,0.02,Wunderground v.1.15,2013-11-16 15:00:00,
2013-11-16 10:05:00,52.3,46.6,30.24,East,81,2.0,2.0,81,0.00,,,0.02,Wunderground v.1.15,2013-11-16 15:05:00,
2013-11-16 10:15:00,53.9,46.5,30.24,East,100,1.0,2.0,76,0.00,,,0.02,Wunderground v.1.15,2013-11-16 15:15:00,
2013-11-16 10:20:00,54.4,45.9,30.24,ESE,119,1.0,4.0,73,0.00,,,0.02,Wunderground v.1.15,2013-11-16 15:20:00,
2013-11-16 10:25:00,54.6,45.8,30.24,SE,138,1.0,4.0,72,0.00,,,0.02,Wunderground v.1.15,2013-11-16 15:25:00,
2013-11-16 10:35:00,55.5,46.2,30.24,NE,49,2.0,3.0,71,0.00,,,0.02,Wunderground v.1.15,2013-11-16 15:35:00,
2013-11-16 10:40:00,55.9,47.4,30.23,SE,131,2.0,2.0,73,0.00,,,0.02,Wunderground v.1.15,2013-11-16 15:40:00,
2013-11-16 10:45:00,56.3,47.0,30.23,East,87,2.0,3.0,71,0.00,,,0.02,Wunderground v.1.15,2013-11-16 15:45:00,
2013-11-16 10:50:00,56.6,46.5,30.23,East,101,2.0,3.0,69,0.00,,,0.02,Wunderground v.1.15,2013-11-16 15:50:00,
2013-11-16 10:55:00,56.6,46.2,30.24,SE,144,2.0,3.0,68,0.00,,,0.02,Wunderground v.1.15,2013-11-16 15:55:00,
2013-11-16 11:00:00,56.6,46.5,30.24,ESE,102,1.0,1.0,69,0.00,,,0.02,Wunderground v.1.15,2013-11-16 16:00:00,
2013-11-16 11:05:00,57.2,46.7,30.24,SE,137,1.0,3.0,68,0.00,,,0.02,Wunderground v.1.15,2013-11-16 16:05:00,
2013-11-16 11:15:00,57.9,47.0,30.23,SE,126,2.0,4.0,67,0.00,,,0.02,Wunderground v.1.15,2013-11-16 16:15:00,
2013-11-16 11:20:00,58.5,46.4,30.23,SSE,165,2.0,2.0,64,0.00,,,0.02,Wunderground v.1.15,2013-11-16 16:20:00,
2013-11-16 11:25:00,57.6,45.5,30.23,South,190,1.0,2.0,64,0.00,,,0.02,Wunderground v.1.15,2013-11-16 16:25:00,
2013-11-16 11:30:00,57.4,45.7,30.23,ESE,120,2.0,2.0,65,0.00,,,0.02,Wunderground v.1.15,2013-11-16 16:30:00,
2013-11-16 11:40:00,57.7,46.8,30.22,SE,146,1.0,1.0,67,0.00,,,0.02,Wunderground v.1.15,2013-11-16 16:40:00,
2013-11-16 11:45:00,57.3,45.6,30.22,SSE,166,2.0,2.0,65,0.00,,,0.02,Wunderground v.1.15,2013-11-16 16:45:00,
2013-11-16 11:50:00,57.3,46.0,30.22,SE,127,1.0,1.0,66,0.00,,,0.02,Wunderground v.1.15,2013-11-16 16:50:00,
2013-11-16 11:55:00,57.7,46.4,30.21,ENE,68,1.0,1.0,66,0.00,,,0.02,Wunderground v.1.15,2013-11-16 16:55:00,
2013-11-16 12:05:00,58.2,46.5,30.21,East,85,1.0,3.0,65,0.00,,,0.02,Wunderground v.1.15,2013-11-16 17:05:00,
2013-11-16 12:15:00,58.6,46.0,30.20,NE,39,2.0,4.0,63,0.00,,,0.02,Wunderground v.1.15,2013-11-16 17:15:00,
2013-11-16 12:20:00,59.4,46.8,30.20,ESE,116,2.0,2.0,63,0.00,,,0.02,Wunderground v.1.15,2013-11-16 17:20:00,
2013-11-16 12:25:00,60.1,47.0,30.19,ESE,114,2.0,3.0,62,0.00,,,0.02,Wunderground v.1.15,2013-11-16 17:25:00,
2013-11-16 12:30:00,60.2,46.7,30.19,East,91,2.0,2.0,61,0.00,,,0.02,Wunderground v.1.15,2013-11-16 17:30:00,
2013-11-16 12:35:00,60.2,46.7,30.18,East,93,1.0,6.0,61,0.00,,,0.02,Wunderground v.1.15,2013-11-16 17:35:00,
2013-11-16 12:40:00,60.5,47.0,30.18,NE,52,2.0,2.0,61,0.00,,,0.02,Wunderground v.1.15,2013-11-16 17:40:00,
2013-11-16 12:50:00,60.5,47.0,30.18,SE,130,1.0,1.0,61,0.00,,,0.02,Wunderground v.1.15,2013-11-16 17:50:00,
2013-11-16 12:55:00,60.8,46.8,30.18,NE,52,1.0,1.0,60,0.00,,,0.02,Wunderground v.1.15,2013-11-16 17:55:00,
2013-11-16 13:00:00,60.7,46.7,30.18,ESE,109,1.0,2.0,60,0.00,,,0.02,Wunderground v.1.15,2013-11-16 18:00:00,
2013-11-16 13:05:00,60.6,47.1,30.18,ENE,69,1.0,2.0,61,0.00,,,0.02,Wunderground v.1.15,2013-11-16 18:05:00,
2013-11-16 13:15:00,59.3,46.3,30.18,SSE,168,1.0,2.0,62,0.00,,,0.02,Wunderground v.1.15,2013-11-16 18:15:00,
2013-11-16 13:25:00,59.7,47.1,30.17,SE,135,0.0,2.0,63,0.00,,,0.02,Wunderground v.1.15,2013-11-16 18:25:00,
2013-11-16 13:30:00,60.0,47.4,30.16,SE,137,1.0,1.0,63,0.00,,,0.02,Wunderground v.1.15,2013-11-16 18:30:00,
2013-11-16 13:35:00,60.6,47.5,30.16,ENE,78,1.0,1.0,62,0.00,,,0.02,Wunderground v.1.15,2013-11-16 18:35:00,
2013-11-16 13:40:00,61.1,47.5,30.15,East,98,1.0,1.0,61,0.00,,,0.02,Wunderground v.1.15,2013-11-16 18:40:00,
2013-11-16 13:45:00,61.1,47.5,30.15,East,89,1.0,3.0,61,0.00,,,0.02,Wunderground v.1.15,2013-11-16 18:45:00,
2013-11-16 13:55:00,61.4,47.4,30.15,SE,143,2.0,2.0,60,0.00,,,0.02,Wunderground v.1.15,2013-11-16 18:55:00,
2013-11-16 14:00:00,61.3,48.2,30.15,East,88,1.0,2.0,62,0.00,,,0.02,Wunderground v.1.15,2013-11-16 19:00:00,
2013-11-16 14:05:00,61.9,47.4,30.15,ESE,120,1.0,2.0,59,0.00,,,0.02,Wunderground v.1.15,2013-11-16 19:05:00,
2013-11-16 14:15:00,63.2,48.2,30.14,North,354,1.0,2.0,58,0.00,,,0.02,Wunderground v.1.15,2013-11-16 19:15:00,
2013-11-16 14:20:00,63.0,48.0,30.14,ESE,114,0.0,1.0,58,0.00,,,0.02,Wunderground v.1.15,2013-11-16 19:20:00,
2013-11-16 14:30:00,63.5,48.5,30.14,ENE,76,1.0,1.0,58,0.00,,,0.02,Wunderground v.1.15,2013-11-16 19:30:00,
2013-11-16 14:35:00,63.4,48.4,30.14,SE,133,1.0,1.0,58,0.00,,,0.02,Wunderground v.1.15,2013-11-16 19:35:00,
2013-11-16 14:40:00,62.9,47.9,30.14,SE,133,1.0,1.0,58,0.00,,,0.02,Wunderground v.1.15,2013-11-16 19:40:00,
2013-11-16 14:50:00,64.2,48.6,30.14,East,81,1.0,1.0,57,0.00,,,0.02,Wunderground v.1.15,2013-11-16 19:50:00,
2013-11-16 14:55:00,65.0,49.4,30.14,NE,45,2.0,2.0,57,0.00,,,0.02,Wunderground v.1.15,2013-11-16 19:55:00,
2013-11-16 15:00:00,65.6,48.5,30.14,ENE,75,2.0,2.0,54,0.00,,,0.02,Wunderground v.1.15,2013-11-16 20:00:00,
2013-11-16 15:05:00,65.7,48.6,30.14,ESE,104,2.0,2.0,54,0.00,,,0.02,Wunderground v.1.15,2013-11-16 20:05:00,
2013-11-16 15:15:00,64.6,48.1,30.14,East,93,1.0,2.0,55,0.00,,,0.02,Wunderground v.1.15,2013-11-16 20:15:00,
2013-11-16 15:20:00,64.0,48.0,30.14,East,93,1.0,1.0,56,0.00,,,0.02,Wunderground v.1.15,2013-11-16 20:20:00,
2013-11-16 15:25:00,63.5,48.0,30.15,ENE,64,0.0,2.0,57,0.00,,,0.02,Wunderground v.1.15,2013-11-16 20:25:00,
2013-11-16 15:35:00,62.6,47.1,30.15,ENE,64,1.0,1.0,57,0.00,,,0.02,Wunderground v.1.15,2013-11-16 20:35:00,
2013-11-16 15:40:00,62.2,47.2,30.15,ENE,64,1.0,1.0,58,0.00,,,0.02,Wunderground v.1.15,2013-11-16 20:40:00,
2013-11-16 15:45:00,61.9,47.4,30.15,ENE,64,0.0,1.0,59,0.00,,,0.02,Wunderground v.1.15,2013-11-16 20:45:00,
2013-11-16 15:50:00,61.7,47.2,30.14,ENE,64,0.0,0.0,59,0.00,,,0.02,Wunderground v.1.15,2013-11-16 20:50:00,
2013-11-16 15:55:00,61.4,47.4,30.14,ENE,64,0.0,0.0,60,0.00,,,0.02,Wunderground v.1.15,2013-11-16 20:55:00,
2013-11-16 16:00:00,61.3,47.3,30.14,ENE,64,0.0,0.0,60,0.00,,,0.02,Wunderground v.1.15,2013-11-16 21:00:00,
2013-11-16 16:05:00,61.1,47.1,30.14,ENE,64,0.0,0.0,60,0.00,,,0.02,Wunderground v.1.15,2013-11-16 21:05:00,
2013-11-16 16:15:00,60.7,47.2,30.13,ENE,62,0.0,1.0,61,0.00,,,0.02,Wunderground v.1.15,2013-11-16 21:15:00,
2013-11-16 16:20:00,60.4,47.3,30.14,ENE,62,0.0,1.0,62,0.00,,,0.02,Wunderground v.1.15,2013-11-16 21:20:00,
2013-11-16 16:25:00,60.0,46.9,30.14,ENE,62,0.0,1.0,62,0.00,,,0.02,Wunderground v.1.15,2013-11-16 21:25:00,
2013-11-16 16:30:00,59.6,46.6,30.14,ENE,62,0.0,0.0,62,0.00,,,0.02,Wunderground v.1.15,2013-11-16 21:30:00,
2013-11-16 16:35:00,59.1,46.5,30.14,ENE,62,0.0,0.0,63,0.00,,,0.02,Wunderground v.1.15,2013-11-16 21:35:00,
2013-11-16 16:45:00,58.4,45.8,30.13,ENE,62,0.0,0.0,63,0.00,,,0.02,Wunderground v.1.15,2013-11-16 21:45:00,
2013-11-16 16:50:00,58.1,46.0,30.13,ENE,62,0.0,0.0,64,0.00,,,0.02,Wunderground v.1.15,2013-11-16 21:50:00,
2013-11-16 16:55:00,57.8,45.7,30.13,ENE,62,0.0,0.0,64,0.00,,,0.02,Wunderground v.1.15,2013-11-16 21:55:00,
2013-11-16 17:00:00,57.6,45.9,30.13,ENE,62,0.0,0.0,65,0.00,,,0.02,Wunderground v.1.15,2013-11-16 22:00:00,
2013-11-16 17:05:00,57.3,45.6,30.13,ENE,62,0.0,0.0,65,0.00,,,0.02,Wunderground v.1.15,2013-11-16 22:05:00,
2013-11-16 17:15:00,56.7,45.5,30.13,ENE,62,0.0,0.0,66,0.00,,,0.02,Wunderground v.1.15,2013-11-16 22:15:00,
2013-11-16 17:20:00,56.4,45.6,30.13,ENE,62,0.0,0.0,67,0.00,,,0.02,Wunderground v.1.15,2013-11-16 22:20:00,
2013-11-16 17:25:00,56.1,45.3,30.13,NE,56,0.0,0.0,67,0.00,,,0.02,Wunderground v.1.15,2013-11-16 22:25:00,
2013-11-16 17:35:00,55.7,45.3,30.14,NE,56,0.0,0.0,68,0.00,,,0.02,Wunderground v.1.15,2013-11-16 22:35:00,
2013-11-16 17:40:00,55.5,45.5,30.14,North,9,0.0,0.0,69,0.00,,,0.02,Wunderground v.1.15,2013-11-16 22:40:00,
2013-11-16 17:45:00,55.4,45.4,30.14,North,9,0.0,2.0,69,0.00,,,0.02,Wunderground v.1.15,2013-11-16 22:45:00,
2013-11-16 17:55:00,55.1,45.9,30.14,North,4,0.0,0.0,71,0.00,,,0.02,Wunderground v.1.15,2013-11-16 22:55:00,
2013-11-16 18:00:00,54.9,46.0,30.14,NNE,12,0.0,3.0,72,0.00,,,0.02,Wunderground v.1.15,2013-11-16 23:00:00,
2013-11-16 18:05:00,54.8,45.9,30.14,NNE,12,0.0,3.0,72,0.00,,,0.02,Wunderground v.1.15,2013-11-16 23:05:00,
2013-11-16 18:15:00,54.6,46.5,30.14,NE,54,1.0,1.0,74,0.00,,,0.02,Wunderground v.1.15,2013-11-16 23:15:00,
2013-11-16 18:25:00,54.4,46.3,30.14,NE,53,0.0,0.0,74,0.00,,,0.02,Wunderground v.1.15,2013-11-16 23:25:00,
2013-11-16 18:30:00,54.2,46.1,30.15,NE,53,0.0,1.0,74,0.00,,,0.02,Wunderground v.1.15,2013-11-16 23:30:00,
2013-11-16 18:35:00,54.1,46.3,30.15,NE,49,0.0,3.0,75,0.00,,,0.02,Wunderground v.1.15,2013-11-16 23:35:00,
2013-11-16 18:40:00,54.0,46.3,30.15,NE,42,0.0,2.0,75,0.00,,,0.02,Wunderground v.1.15,2013-11-16 23:40:00,
2013-11-16 18:45:00,53.9,46.2,30.15,NE,39,1.0,2.0,75,0.00,,,0.02,Wunderground v.1.15,2013-11-16 23:45:00,
2013-11-16 18:50:00,53.8,46.4,30.15,NE,39,0.0,0.0,76,0.00,,,0.02,Wunderground v.1.15,2013-11-16 23:50:00,
2013-11-16 19:00:00,53.5,46.1,30.15,NE,41,0.0,0.0,76,0.00,,,0.02,Wunderground v.1.15,2013-11-17 00:00:00,
2013-11-16 19:05:00,53.3,46.3,30.14,NE,36,0.0,0.0,77,0.00,,,0.02,Wunderground v.1.15,2013-11-17 00:05:00,
2013-11-16 19:15:00,53.0,46.3,30.15,NW,312,0.0,3.0,78,0.00,,,0.02,Wunderground v.1.15,2013-11-17 00:15:00,
2013-11-16 19:20:00,52.8,46.5,30.15,NE,43,1.0,1.0,79,0.00,,,0.02,Wunderground v.1.15,2013-11-17 00:20:00,
2013-11-16 19:30:00,52.6,46.6,30.15,NE,43,0.0,0.0,80,0.00,,,0.02,Wunderground v.1.15,2013-11-17 00:30:00,
2013-11-16 19:35:00,52.4,46.4,30.15,NE,43,0.0,0.0,80,0.00,,,0.02,Wunderground v.1.15,2013-11-17 00:35:00,
2013-11-16 19:40:00,52.3,46.6,30.16,NE,43,0.0,0.0,81,0.00,,,0.02,Wunderground v.1.15,2013-11-17 00:40:00,
2013-11-16 19:45:00,52.2,46.5,30.16,ENE,61,0.0,0.0,81,0.00,,,0.02,Wunderground v.1.15,2013-11-17 00:45:00,
2013-11-16 19:55:00,52.0,46.3,30.15,ENE,61,0.0,0.0,81,0.00,,,0.02,Wunderground v.1.15,2013-11-17 00:55:00,
2013-11-16 20:00:00,51.9,46.6,30.15,ENE,65,0.0,0.0,82,0.00,,,0.02,Wunderground v.1.15,2013-11-17 01:00:00,
2013-11-16 20:05:00,51.7,46.4,30.15,ENE,65,0.0,0.0,82,0.00,,,0.02,Wunderground v.1.15,2013-11-17 01:05:00,
2013-11-16 20:15:00,51.6,46.6,30.15,NE,48,0.0,0.0,83,0.00,,,0.02,Wunderground v.1.15,2013-11-17 01:15:00,
2013-11-16 20:20:00,51.5,46.5,30.15,NNE,23,0.0,0.0,83,0.00,,,0.02,Wunderground v.1.15,2013-11-17 01:20:00,
2013-11-16 20:25:00,51.4,46.4,30.15,NNE,23,0.0,0.0,83,0.00,,,0.02,Wunderground v.1.15,2013-11-17 01:25:00,
2013-11-16 20:30:00,51.3,46.3,30.15,NNE,23,0.0,0.0,83,0.00,,,0.02,Wunderground v.1.15,2013-11-17 01:30:00,
2013-11-16 20:40:00,51.0,46.3,30.15,NE,35,0.0,0.0,84,0.00,,,0.02,Wunderground v.1.15,2013-11-17 01:40:00,
2013-11-16 20:45:00,50.9,46.2,30.15,NE,35,0.0,0.0,84,0.00,,,0.02,Wunderground v.1.15,2013-11-17 01:45:00,
2013-11-16 20:50:00,50.8,46.5,30.15,NE,35,0.0,2.0,85,0.00,,,0.02,Wunderground v.1.15,2013-11-17 01:50:00,
2013-11-16 20:55:00,50.6,46.3,30.14,NNE,27,0.0,2.0,85,0.00,,,0.02,Wunderground v.1.15,2013-11-17 01:55:00,
2013-11-16 21:00:00,50.6,46.3,30.14,NW,320,0.0,0.0,85,0.00,,,0.02,Wunderground v.1.15,2013-11-17 02:00:00,
2013-11-16 21:05:00,50.5,46.2,30.14,NNE,30,0.0,0.0,85,0.00,,,0.02,Wunderground v.1.15,2013-11-17 02:05:00,
2013-11-16 21:15:00,50.3,46.3,30.14,NNE,33,1.0,1.0,86,0.00,,,0.02,Wunderground v.1.15,2013-11-17 02:15:00,
2013-11-16 21:20:00,50.2,46.2,30.14,NNE,33,0.0,0.0,86,0.00,,,0.02,Wunderground v.1.15,2013-11-17 02:20:00,
2013-11-16 21:25:00,50.0,46.0,30.14,NNE,33,0.0,0.0,86,0.00,,,0.02,Wunderground v.1.15,2013-11-17 02:25:00,
2013-11-16 21:30:00,50.0,46.3,30.14,NNE,33,0.0,1.0,87,0.00,,,0.02,Wunderground v.1.15,2013-11-17 02:30:00,
2013-11-16 21:35:00,49.9,46.2,30.15,NNW,339,0.0,1.0,87,0.00,,,0.02,Wunderground v.1.15,2013-11-17 02:35:00,
2013-11-16 21:45:00,49.6,45.9,30.15,NNE,27,0.0,0.0,87,0.00,,,0.02,Wunderground v.1.15,2013-11-17 02:45:00,
2013-11-16 21:50:00,49.5,45.8,30.14,NE,45,0.0,0.0,87,0.00,,,0.02,Wunderground v.1.15,2013-11-17 02:50:00,
2013-11-16 21:55:00,49.4,46.0,30.14,NE,45,0.0,0.0,88,0.00,,,0.02,Wunderground v.1.15,2013-11-17 02:55:00,
2013-11-16 22:00:00,49.4,46.0,30.14,NNE,25,0.0,1.0,88,0.00,,,0.02,Wunderground v.1.15,2013-11-17 03:00:00,
2013-11-16 22:05:00,49.4,46.0,30.13,NNE,24,0.0,1.0,88,0.00,,,0.02,Wunderground v.1.15,2013-11-17 03:05:00,
2013-11-16 22:15:00,49.3,45.9,30.14,NNE,24,0.0,0.0,88,0.00,,,0.02,Wunderground v.1.15,2013-11-17 03:15:00,
2013-11-16 22:20:00,49.3,46.2,30.14,NNE,32,0.0,0.0,89,0.00,,,0.02,Wunderground v.1.15,2013-11-17 03:20:00,
2013-11-16 22:25:00,49.3,46.2,30.13,NNE,32,0.0,1.0,89,0.00,,,0.02,Wunderground v.1.15,2013-11-17 03:25:00,